Location: Ch?enovice
(49.7164°N, 15.2160°E)
Time: 16:41:36
(UTC+00:00)

COSMOS 2441 - Pass Details

Date: 23 May 2024
Orbit: 705 x 730 km, 98.2° (Epoch: 12 June)

Event Time Altitude Azimuth Distance (km) Brightness Sun altitude
Rises 01:27:56 0° 13° (NNE) 3,117 9.0 -12.0°
Reaches altitude 10° 01:30:13 10° 13° (NNE) 2,191 8.0 -11.8°
Maximum altitude 01:35:01 82° 287° (WNW) 719 4.3 -11.3°
Enters shadow 01:39:15 13° 200° (SSW) 1,960 6.0 -10.9°
